| time (UTC) | temp C | wind direction | speed KPH | gust KPH | rain 1hr cm | rain 24hr cm | rain mn cm | humidity % | barometer mb |
| 20260504110331 | 5 | 258 | 0.0 | 0.0 | 0.00 | 0.00 | 0.00 | 85 | 1014.7 |
| 20260504100331 | 6 | 258 | 0.0 | 0.0 | 0.00 | 0.00 | 0.00 | 83 | 1014.6 |
| 20260504081829 | 5 | 258 | 0.0 | 0.0 | 0.00 | 0.00 | 0.00 | 82 | 1015.0 |
| 20260504081329 | 5 | 258 | 0.0 | 0.0 | 0.00 | 0.00 | 0.00 | 82 | 1015.0 |
| 20260504080828 | 5 | 258 | 0.0 | 0.0 | 0.00 | 0.00 | 0.00 | 83 | 1015.0 |
| 20260504080328 | 5 | 258 | 0.0 | 0.0 | 0.00 | 0.00 | 0.00 | 83 | 1015.0 |
| 20260504080110 | 5 | 258 | 0.0 | 0.0 | 0.00 | 0.00 | 0.00 | 84 | 1015.0 |
| 20260504060127 | 3 | 258 | 0.0 | 0.0 | 0.00 | 0.00 | 0.00 | 83 | 1015.3 |
| 20260504050329 | 3 | 258 | 0.0 | 0.0 | 0.00 | 0.00 | 0.00 | 83 | 1015.7 |
| 20260504045829 | 3 | 258 | 0.0 | 0.0 | 0.00 | 0.00 | 0.00 | 83 | 1015.7 |
| 20260504045614 | 3 | 258 | 0.0 | 0.0 | 0.00 | 0.00 | 0.00 | 83 | 1015.7 |
| 20260504044829 | 3 | 258 | 0.0 | 0.0 | 0.00 | 0.00 | 0.00 | 82 | 1015.7 |
| 20260504044329 | 3 | 258 | 0.0 | 0.0 | 0.00 | 0.00 | 0.00 | 82 | 1015.7 |
| 20260504043829 | 3 | 258 | 0.0 | 0.0 | 0.00 | 0.00 | 0.00 | 82 | 1015.6 |
| 20260504043329 | 3 | 258 | 0.0 | 0.0 | 0.00 | 0.00 | 0.00 | 82 | 1015.6 |
| 20260504042829 | 3 | 258 | 0.0 | 0.0 | 0.00 | 0.00 | 0.00 | 82 | 1015.6 |
| 20260504042329 | 3 | 258 | 0.0 | 0.0 | 0.00 | 0.00 | 0.00 | 82 | 1015.6 |
| 20260504041828 | 3 | 258 | 0.0 | 0.0 | 0.00 | 0.00 | 0.00 | 82 | 1015.6 |
| 20260504041329 | 3 | 258 | 0.0 | 0.0 | 0.00 | 0.00 | 0.00 | 82 | 1015.6 |
| 20260504040831 | 3 | 258 | 0.0 | 0.0 | 0.00 | 0.00 | 0.00 | 82 | 1015.6 |
| 20260504040329 | 3 | 258 | 0.0 | 0.0 | 0.00 | 0.00 | 0.00 | 82 | 1015.6 |
| 20260504040115 | 3 | 258 | 0.0 | 0.0 | 0.00 | 0.00 | 0.00 | 82 | 1015.6 |
| 20260504035329 | 4 | 258 | 0.0 | 0.0 | 0.00 | 0.00 | 0.00 | 82 | 1015.6 |
| 20260504034830 | 4 | 258 | 0.0 | 0.0 | 0.00 | 0.00 | 0.00 | 82 | 1015.6 |
| 20260504034329 | 4 | 258 | 0.0 | 0.0 | 0.00 | 0.00 | 0.00 | 82 | 1015.6 |
| 20260504033838 | 4 | 258 | 0.0 | 0.0 | 0.00 | 0.00 | 0.00 | 81 | 1015.4 |
| 20260504033329 | 4 | 258 | 0.0 | 0.0 | 0.00 | 0.00 | 0.00 | 80 | 1015.6 |
| 20260504032829 | 4 | 258 | 0.0 | 0.0 | 0.00 | 0.00 | 0.00 | 80 | 1015.3 |
| 20260504032329 | 4 | 258 | 0.0 | 0.0 | 0.00 | 0.00 | 0.00 | 80 | 1015.3 |
| 20260504032108 | 5 | 258 | 0.0 | 0.0 | 0.00 | 0.00 | 0.00 | 80 | 1015.2 |
| 20260504031328 | 5 | 258 | 0.0 | 0.0 | 0.00 | 0.00 | 0.00 | 79 | 1015.1 |
| 20260504031121 | 5 | 258 | 0.0 | 0.0 | 0.00 | 0.00 | 0.00 | 78 | 1015.1 |
| 20260504030333 | 5 | 258 | 0.0 | 0.0 | 0.00 | 0.00 | 0.00 | 78 | 1015.0 |
| 20260504030115 | 5 | 258 | 0.0 | 0.0 | 0.00 | 0.00 | 0.00 | 78 | 1015.0 |
| 20260504025331 | 5 | 258 | 0.0 | 0.0 | 0.00 | 0.00 | 0.00 | 77 | 1015.0 |
| 20260504024832 | 5 | 258 | 0.0 | 0.0 | 0.00 | 0.00 | 0.00 | 77 | 1015.0 |
| 20260504024332 | 5 | 258 | 0.0 | 0.0 | 0.00 | 0.00 | 0.00 | 77 | 1015.0 |
| 20260504023834 | 5 | 258 | 0.0 | 0.0 | 0.00 | 0.00 | 0.00 | 77 | 1015.1 |
| 20260504023332 | 5 | 258 | 0.0 | 0.0 | 0.00 | 0.00 | 0.00 | 78 | 1015.1 |
| 20260504022829 | 5 | 258 | 0.0 | 0.0 | 0.00 | 0.00 | 0.00 | 77 | 1015.0 |
| 20260504022330 | 6 | 258 | 0.0 | 0.0 | 0.00 | 0.00 | 0.00 | 76 | 1015.0 |
| 20260504021829 | 6 | 258 | 0.0 | 0.0 | 0.00 | 0.00 | 0.00 | 76 | 1015.0 |
| 20260504021329 | 6 | 258 | 0.0 | 0.0 | 0.00 | 0.00 | 0.00 | 75 | 1015.0 |
| 20260504020829 | 6 | 258 | 0.0 | 0.0 | 0.00 | 0.00 | 0.00 | 75 | 1014.9 |
| 20260504020330 | 6 | 258 | 0.0 | 0.0 | 0.00 | 0.00 | 0.00 | 74 | 1014.9 |
| 20260504015830 | 6 | 258 | 0.0 | 0.0 | 0.00 | 0.00 | 0.00 | 73 | 1014.8 |
| 20260504015330 | 6 | 258 | 0.0 | 0.0 | 0.00 | 0.00 | 0.00 | 72 | 1014.8 |
| 20260504014830 | 7 | 258 | 0.0 | 0.0 | 0.00 | 0.00 | 0.00 | 71 | 1014.7 |
| 20260504014329 | 7 | 258 | 0.0 | 0.0 | 0.00 | 0.00 | 0.00 | 72 | 1014.7 |
| 20260504013829 | 7 | 258 | 0.0 | 0.0 | 0.00 | 0.00 | 0.00 | 71 | 1014.7 |
| 20260504013329 | 7 | 258 | 0.0 | 0.0 | 0.00 | 0.00 | 0.00 | 69 | 1014.8 |
| 20260504013117 | 7 | 258 | 0.0 | 0.0 | 0.00 | 0.00 | 0.00 | 69 | 1014.8 |
| 20260504012329 | 7 | 258 | 0.0 | 0.0 | 0.00 | 0.00 | 0.00 | 68 | 1014.7 |
| 20260504011829 | 8 | 258 | 0.0 | 0.0 | 0.00 | 0.00 | 0.00 | 68 | 1014.6 |
| 20260504011329 | 8 | 258 | 0.0 | 0.0 | 0.00 | 0.00 | 0.00 | 67 | 1014.6 |
| 20260504010829 | 8 | 258 | 0.0 | 0.0 | 0.00 | 0.00 | 0.00 | 66 | 1014.5 |
| 20260504010328 | 8 | 258 | 0.0 | 0.0 | 0.00 | 0.00 | 0.00 | 65 | 1014.5 |
| 20260504005829 | 9 | 258 | 0.0 | 0.0 | 0.00 | 0.00 | 0.00 | 63 | 1014.4 |
| 20260504005328 | 9 | 258 | 0.0 | 0.0 | 0.00 | 0.00 | 0.00 | 62 | 1014.5 |
| 20260504004828 | 10 | 258 | 0.0 | 0.0 | 0.00 | 0.00 | 0.00 | 61 | 1014.5 |
| 20260504004332 | 10 | 258 | 0.0 | 0.0 | 0.00 | 0.00 | 0.00 | 59 | 1014.4 |
| 20260504003822 | 10 | 258 | 0.0 | 0.0 | 0.00 | 0.00 | 0.00 | 57 | 1014.3 |
| 20260504003321 | 11 | 258 | 0.0 | 0.0 | 0.00 | 0.00 | 0.00 | 56 | 1014.2 |
| 20260504002820 | 11 | 258 | 0.0 | 0.0 | 0.00 | 0.00 | 0.00 | 55 | 1014.3 |
| 20260504002317 | 11 | 258 | 0.0 | 0.0 | 0.00 | 0.00 | 0.00 | 53 | 1014.2 |
| 20260504001816 | 12 | 258 | 0.0 | 0.0 | 0.00 | 0.00 | 0.00 | 52 | 1014.2 |
| 20260504001316 | 12 | 258 | 0.0 | 0.0 | 0.00 | 0.00 | 0.00 | 51 | 1014.2 |
| 20260504000818 | 12 | 258 | 0.0 | 0.0 | 0.00 | 0.00 | 0.00 | 49 | 1014.1 |
| 20260504000308 | 13 | 258 | 0.0 | 0.0 | 0.00 | 0.00 | 0.00 | 46 | 1014.1 |
| 20260503235803 | 13 | 258 | 0.0 | 0.0 | 0.00 | 0.00 | 0.00 | 46 | 1014.0 |
| 20260503235304 | 13 | 258 | 0.0 | 0.0 | 0.00 | 0.00 | 0.00 | 42 | 1013.9 |
| 20260503234803 | 14 | 258 | 0.0 | 0.0 | 0.00 | 0.00 | 0.00 | 42 | 1013.9 |
| 20260503234302 | 14 | 258 | 0.0 | 0.0 | 0.00 | 0.00 | 0.00 | 38 | 1013.9 |
| 20260503233803 | 14 | 258 | 0.0 | 0.0 | 0.00 | 0.00 | 0.00 | 38 | 1013.9 |
| 20260503233303 | 15 | 258 | 0.0 | 3.2 | 0.00 | 0.00 | 0.00 | 38 | 1013.9 |
| 20260503232802 | 15 | 258 | 0.0 | 3.2 | 0.00 | 0.00 | 0.00 | 38 | 1013.9 |
| 20260503232305 | 15 | 258 | 1.6 | 3.2 | 0.00 | 0.00 | 0.00 | 36 | 1013.8 |
| 20260503231802 | 15 | 258 | 1.6 | 3.2 | 0.00 | 0.00 | 0.00 | 36 | 1013.8 |
| 20260503231305 | 15 | 258 | 0.0 | 3.2 | 0.00 | 0.00 | 0.00 | 36 | 1013.6 |
| 20260503231047 | 15 | 258 | 0.0 | 3.2 | 0.00 | 0.00 | 0.00 | 36 | 1013.6 |
| 20260503230302 | 15 | 258 | 0.0 | 3.2 | 0.00 | 0.00 | 0.00 | 36 | 1013.6 |
| 20260503225802 | 15 | 258 | 1.6 | 6.4 | 0.00 | 0.00 | 0.00 | 36 | 1013.6 |
| 20260503225304 | 15 | 258 | 0.0 | 6.4 | 0.00 | 0.00 | 0.00 | 36 | 1013.6 |
| 20260503225048 | 15 | 221 | 0.0 | 4.8 | 0.00 | 0.00 | 0.00 | 36 | 1013.6 |
| 20260503224303 | 15 | 278 | 1.6 | 3.2 | 0.00 | 0.00 | 0.00 | 36 | 1013.7 |
| 20260503223802 | 15 | 278 | 1.6 | 6.4 | 0.00 | 0.00 | 0.00 | 36 | 1013.7 |
| 20260503223303 | 15 | 277 | 1.6 | 6.4 | 0.00 | 0.00 | 0.00 | 35 | 1013.7 |
| 20260503222802 | 15 | 296 | 1.6 | 4.8 | 0.00 | 0.00 | 0.00 | 37 | 1013.7 |
| 20260503222304 | 15 | 286 | 1.6 | 17.7 | 0.00 | 0.00 | 0.00 | 37 | 1013.7 |
| 20260503221803 | 15 | 286 | 3.2 | 17.7 | 0.00 | 0.00 | 0.00 | 35 | 1013.7 |
| 20260503221303 | 15 | 292 | 1.6 | 17.7 | 0.00 | 0.00 | 0.00 | 36 | 1013.7 |
| 20260503220804 | 15 | 80 | 3.2 | 9.7 | 0.00 | 0.00 | 0.00 | 34 | 1013.6 |
| 20260503220303 | 15 | 195 | 1.6 | 6.4 | 0.00 | 0.00 | 0.00 | 35 | 1013.7 |
| 20260503215803 | 15 | 196 | 3.2 | 16.1 | 0.00 | 0.00 | 0.00 | 35 | 1013.8 |
| 20260503215304 | 16 | 196 | 3.2 | 16.1 | 0.00 | 0.00 | 0.00 | 34 | 1013.8 |
| 20260503214804 | 16 | 187 | 4.8 | 11.3 | 0.00 | 0.00 | 0.00 | 35 | 1013.8 |
| 20260503214302 | 16 | 243 | 3.2 | 6.4 | 0.00 | 0.00 | 0.00 | 35 | 1013.8 |
| 20260503214047 | 16 | 246 | 1.6 | 6.4 | 0.00 | 0.00 | 0.00 | 35 | 1013.8 |
| 20260503213303 | 16 | 221 | 3.2 | 9.7 | 0.00 | 0.00 | 0.00 | 35 | 1013.9 |
| 20260503212802 | 16 | 166 | 6.4 | 12.9 | 0.00 | 0.00 | 0.00 | 34 | 1013.9 |
| 20260503212305 | 16 | 180 | 1.6 | 12.9 | 0.00 | 0.00 | 0.00 | 33 | 1013.8 |
| 20260503211803 | 16 | 281 | 1.6 | 6.4 | 0.00 | 0.00 | 0.00 | 36 | 1013.7 |
| 20260503211302 | 16 | 352 | 1.6 | 6.4 | 0.00 | 0.00 | 0.00 | 35 | 1013.7 |
| 20260503210802 | 16 | 343 | 0.0 | 9.7 | 0.00 | 0.00 | 0.00 | 33 | 1013.7 |
| 20260503210302 | 16 | 236 | 4.8 | 9.7 | 0.00 | 0.00 | 0.00 | 37 | 1013.8 |
| 20260503205802 | 16 | 170 | 1.6 | 8.0 | 0.00 | 0.00 | 0.00 | 34 | 1013.8 |
| 20260503205304 | 16 | 171 | 3.2 | 8.0 | 0.00 | 0.00 | 0.00 | 35 | 1013.9 |
| 20260503204802 | 16 | 293 | 3.2 | 12.9 | 0.00 | 0.00 | 0.00 | 34 | 1014.0 |
| 20260503204302 | 16 | 242 | 3.2 | 12.9 | 0.00 | 0.00 | 0.00 | 34 | 1014.1 |
| 20260503203801 | 16 | 117 | 1.6 | 4.8 | 0.00 | 0.00 | 0.00 | 35 | 1013.8 |
| 20260503203302 | 16 | 63 | 1.6 | 9.7 | 0.00 | 0.00 | 0.00 | 35 | 1013.9 |
| 20260503203044 | 16 | 290 | 4.8 | 9.7 | 0.00 | 0.00 | 0.00 | 34 | 1013.9 |
| 20260503202304 | 15 | 243 | 3.2 | 17.7 | 0.00 | 0.00 | 0.00 | 36 | 1014.0 |
| 20260503201801 | 15 | 190 | 4.8 | 17.7 | 0.00 | 0.00 | 0.00 | 34 | 1014.0 |
| 20260503201301 | 16 | 222 | 6.4 | 11.3 | 0.00 | 0.00 | 0.00 | 36 | 1014.0 |
| 20260503200801 | 16 | 167 | 3.2 | 12.9 | 0.00 | 0.00 | 0.00 | 35 | 1014.2 |
| 20260503200301 | 15 | 277 | 3.2 | 12.9 | 0.00 | 0.00 | 0.00 | 36 | 1014.4 |
| 20260503195800 | 15 | 240 | 3.2 | 11.3 | 0.00 | 0.00 | 0.00 | 40 | 1014.2 |
| 20260503195304 | 15 | 279 | 3.2 | 9.7 | 0.00 | 0.00 | 0.00 | 36 | 1014.4 |
| 20260503194758 | 15 | 317 | 1.6 | 16.1 | 0.00 | 0.00 | 0.00 | 40 | 1014.5 |
| 20260503194255 | 15 | 198 | 4.8 | 16.1 | 0.00 | 0.00 | 0.00 | 38 | 1014.7 |
| 20260503193754 | 15 | 232 | 8.0 | 16.1 | 0.00 | 0.00 | 0.00 | 36 | 1014.6 |
| 20260503193250 | 15 | 71 | 3.2 | 11.3 | 0.00 | 0.00 | 0.00 | 38 | 1014.8 |
| 20260503192750 | 15 | 189 | 3.2 | 17.7 | 0.00 | 0.00 | 0.00 | 38 | 1014.9 |
| 20260503192253 | 15 | 292 | 4.8 | 17.7 | 0.00 | 0.00 | 0.00 | 37 | 1015.0 |
| 20260503191750 | 15 | 257 | 3.2 | 11.3 | 0.00 | 0.00 | 0.00 | 36 | 1014.9 |
| 20260503191539 | 15 | 207 | 4.8 | 11.3 | 0.00 | 0.00 | 0.00 | 39 | 1015.1 |
| 20260503190750 | 15 | 206 | 4.8 | 9.7 | 0.00 | 0.00 | 0.00 | 40 | 1015.0 |
| 20260503190250 | 14 | 229 | 4.8 | 14.5 | 0.00 | 0.00 | 0.00 | 39 | 1015.1 |
| 20260503185751 | 14 | 228 | 4.8 | 14.5 | 0.00 | 0.00 | 0.00 | 39 | 1015.1 |
| 20260503185250 | 14 | 240 | 3.2 | 11.3 | 0.00 | 0.00 | 0.00 | 40 | 1015.1 |
| 20260503184750 | 14 | 209 | 3.2 | 14.5 | 0.00 | 0.00 | 0.00 | 41 | 1015.2 |
| 20260503184251 | 14 | 215 | 4.8 | 14.5 | 0.00 | 0.00 | 0.00 | 43 | 1015.2 |
| 20260503183751 | 14 | 56 | 3.2 | 11.3 | 0.00 | 0.00 | 0.00 | 40 | 1015.3 |
| 20260503183250 | 13 | 232 | 4.8 | 11.3 | 0.00 | 0.00 | 0.00 | 40 | 1015.4 |
| 20260503182750 | 13 | 123 | 3.2 | 8.0 | 0.00 | 0.00 | 0.00 | 43 | 1015.4 |
| 20260503182251 | 13 | 286 | 3.2 | 14.5 | 0.00 | 0.00 | 0.00 | 43 | 1015.6 |
| 20260503182038 | 13 | 273 | 4.8 | 14.5 | 0.00 | 0.00 | 0.00 | 41 | 1015.4 |
| 20260503181250 | 13 | 313 | 3.2 | 14.5 | 0.00 | 0.00 | 0.00 | 43 | 1015.6 |
| 20260503180751 | 13 | 280 | 3.2 | 14.5 | 0.00 | 0.00 | 0.00 | 41 | 1015.6 |
| 20260503180252 | 13 | 272 | 3.2 | 14.5 | 0.00 | 0.00 | 0.00 | 48 | 1015.7 |
| 20260503180037 | 13 | 279 | 3.2 | 14.5 | 0.00 | 0.00 | 0.00 | 44 | 1015.7 |
| 20260503175251 | 13 | 209 | 4.8 | 14.5 | 0.00 | 0.00 | 0.00 | 42 | 1015.8 |
| 20260503174750 | 13 | 234 | 3.2 | 11.3 | 0.00 | 0.00 | 0.00 | 44 | 1015.8 |
| 20260503174536 | 12 | 200 | 4.8 | 8.0 | 0.00 | 0.00 | 0.00 | 45 | 1015.7 |
| 20260503173751 | 12 | 304 | 3.2 | 6.4 | 0.00 | 0.00 | 0.00 | 44 | 1015.7 |
| 20260503173253 | 12 | 233 | 3.2 | 17.7 | 0.00 | 0.00 | 0.00 | 45 | 1015.8 |
| 20260503172753 | 12 | 232 | 6.4 | 17.7 | 0.00 | 0.00 | 0.00 | 46 | 1015.7 |
| 20260503172252 | 12 | 225 | 3.2 | 12.9 | 0.00 | 0.00 | 0.00 | 44 | 1015.7 |
| 20260503171752 | 12 | 319 | 4.8 | 14.5 | 0.00 | 0.00 | 0.00 | 46 | 1015.7 |
| 20260503171253 | 12 | 261 | 6.4 | 14.5 | 0.00 | 0.00 | 0.00 | 45 | 1015.8 |
| 20260503170754 | 12 | 63 | 4.8 | 8.0 | 0.00 | 0.00 | 0.00 | 43 | 1015.9 |
| 20260503170303 | 12 | 72 | 1.6 | 12.9 | 0.00 | 0.00 | 0.00 | 47 | 1016.0 |
| 20260503150753 | 10 | 253 | 3.2 | 12.9 | 0.00 | 0.00 | 0.00 | 49 | 1016.9 |
| 20260503150254 | 10 | 43 | 1.6 | 8.0 | 0.00 | 0.00 | 0.00 | 50 | 1016.7 |
| 20260503140251 | 8 | 287 | 4.8 | 8.0 | 0.00 | 0.00 | 0.00 | 56 | 1017.2 |
| 20260503131239 | 7 | 273 | 3.2 | 12.9 | 0.00 | 0.00 | 0.00 | 61 | 1017.2 |
| 20260503131023 | 6 | 46 | 3.2 | 17.7 | 0.00 | 0.00 | 0.00 | 61 | 1017.2 |
| 20260503130239 | 6 | 253 | 1.6 | 17.7 | 0.00 | 0.00 | 0.00 | 64 | 1017.1 |